Hourly Weather Northampton

Today, 11 August, Tuesday

Time Temperature Precipitation Wind Pressure Humidity
00:00 +21°C° 0.1 mm 2 mps 752 mmHg 83%
01:00 +20°C° 0 mm 2 mps 752 mmHg 84%
02:00 +20°C° 0 mm 2 mps 752 mmHg 85%
03:00 +20°C° 0 mm 2 mps 752 mmHg 86%
04:00 +20°C° 0 mm 2 mps 752 mmHg 87%
05:00 +20°C° 0 mm 2 mps 752 mmHg 87%
06:00 +20°C° 0 mm 2 mps 752 mmHg 87%
07:00 +23°C° 0 mm 2 mps 752 mmHg 81%
08:00 +25°C° 0 mm 2 mps 752 mmHg 74%
09:00 +27°C° 0 mm 3 mps 753 mmHg 67%
10:00 +28°C° 0 mm 3 mps 753 mmHg 61%
11:00 +30°C° 0 mm 3 mps 753 mmHg 56%
12:00 +31°C° 0 mm 3 mps 753 mmHg 50%
13:00 +32°C° 0 mm 2 mps 752 mmHg 47%
14:00 +34°C° 0 mm 2 mps 752 mmHg 45%
15:00 +34°C° 0 mm 2 mps 752 mmHg 42%
16:00 +34°C° 0 mm 2 mps 752 mmHg 45%
17:00 +32°C° 0 mm 1 mps 751 mmHg 48%
18:00 +32°C° 0 mm 1 mps 751 mmHg 51%
19:00 +30°C° 0.3 mm 2 mps 751 mmHg 58%
20:00 +27°C° 0.3 mm 2 mps 751 mmHg 65%
21:00 +25°C° 0.3 mm 3 mps 752 mmHg 72%
22:00 +24°C° 0.8 mm 3 mps 752 mmHg 76%
23:00 +24°C° 0.8 mm 3 mps 752 mmHg 79%

Tomorrow, 12 August, Wednesday

Time Temperature Precipitation Wind Pressure Humidity
00:00 +23°C° 0.8 mm 2 mps 752 mmHg 83%
01:00 +23°C° 0.1 mm 2 mps 751 mmHg 83%
02:00 +21°C° 0.1 mm 2 mps 751 mmHg 83%
03:00 +22°C° 0.1 mm 1 mps 751 mmHg 83%
04:00 +22°C° 0 mm 1 mps 751 mmHg 82%
05:00 +23°C° 0 mm 1 mps 751 mmHg 82%
06:00 +23°C° 0 mm 1 mps 751 mmHg 82%
07:00 +24°C° 0 mm 1 mps 751 mmHg 75%
08:00 +26°C° 0 mm 1 mps 751 mmHg 68%
09:00 +28°C° 0 mm 1 mps 751 mmHg 61%
10:00 +29°C° 0 mm 2 mps 751 mmHg 57%
11:00 +30°C° 0 mm 2 mps 751 mmHg 53%
12:00 +32°C° 0 mm 2 mps 751 mmHg 48%
13:00 +32°C° 0 mm 2 mps 751 mmHg 46%
14:00 +34°C° 0 mm 2 mps 751 mmHg 44%
15:00 +34°C° 0 mm 2 mps 750 mmHg 42%
16:00 +31°C° 0.2 mm 2 mps 750 mmHg 50%
17:00 +30°C° 0.2 mm 2 mps 750 mmHg 58%
18:00 +28°C° 0.2 mm 3 mps 750 mmHg 66%
19:00 +27°C° 1.1 mm 2 mps 750 mmHg 72%
20:00 +25°C° 1.1 mm 2 mps 750 mmHg 77%
21:00 +24°C° 1.1 mm 1 mps 750 mmHg 83%
22:00 +23°C° 0.9 mm 2 mps 750 mmHg 85%
23:00 +23°C° 0.9 mm 2 mps 750 mmHg 87%

Day after tomorrow, 13 August, Thursday

Time Temperature Precipitation Wind Pressure Humidity
00:00 +21°C° 0.9 mm 2 mps 750 mmHg 90%
01:00 +21°C° 0 mm 2 mps 750 mmHg 91%
02:00 +21°C° 0 mm 2 mps 749 mmHg 92%
03:00 +21°C° 0 mm 2 mps 749 mmHg 93%
04:00 +21°C° 0 mm 2 mps 749 mmHg 92%
05:00 +21°C° 0 mm 2 mps 749 mmHg 90%
06:00 +21°C° 0 mm 2 mps 749 mmHg 89%
07:00 +22°C° 0.1 mm 3 mps 749 mmHg 85%
08:00 +24°C° 0.1 mm 3 mps 749 mmHg 81%
09:00 +25°C° 0.1 mm 3 mps 749 mmHg 77%
10:00 +26°C° 0 mm 3 mps 749 mmHg 73%
11:00 +28°C° 0 mm 3 mps 749 mmHg 68%
12:00 +29°C° 0 mm 3 mps 749 mmHg 63%
13:00 +29°C° 0.7 mm 3 mps 749 mmHg 62%
14:00 +29°C° 0.7 mm 3 mps 749 mmHg 62%
15:00 +30°C° 0.7 mm 3 mps 748 mmHg 61%
16:00 +28°C° 1.8 mm 3 mps 748 mmHg 67%
17:00 +27°C° 1.8 mm 4 mps 748 mmHg 73%
18:00 +26°C° 1.8 mm 4 mps 748 mmHg 79%
19:00 +23°C° 0.5 mm 4 mps 748 mmHg 84%
20:00 +22°C° 0.5 mm 3 mps 748 mmHg 88%
21:00 +21°C° 0.5 mm 2 mps 749 mmHg 93%
22:00 +20°C° 0 mm 2 mps 749 mmHg 94%
23:00 +20°C° 0 mm 3 mps 749 mmHg 94%

14 August, Friday

Time Temperature Precipitation Wind Pressure Humidity
00:00 +20°C° 0 mm 3 mps 749 mmHg 95%
01:00 +20°C° 0 mm 3 mps 749 mmHg 95%
02:00 +20°C° 0 mm 2 mps 749 mmHg 95%
03:00 +20°C° 0 mm 2 mps 749 mmHg 94%
04:00 +20°C° 0 mm 2 mps 749 mmHg 94%
05:00 +20°C° 0 mm 2 mps 749 mmHg 93%
06:00 +21°C° 0 mm 1 mps 749 mmHg 92%
07:00 +21°C° 0 mm 2 mps 749 mmHg 89%
08:00 +21°C° 0 mm 2 mps 750 mmHg 85%
09:00 +23°C° 0 mm 2 mps 750 mmHg 82%
10:00 +24°C° 0.4 mm 2 mps 750 mmHg 79%
11:00 +24°C° 0.4 mm 3 mps 750 mmHg 77%
12:00 +25°C° 0.4 mm 3 mps 750 mmHg 75%
13:00 +25°C° 0.9 mm 3 mps 750 mmHg 73%
14:00 +26°C° 0.9 mm 3 mps 750 mmHg 71%
15:00 +26°C° 0.9 mm 2 mps 750 mmHg 70%
16:00 +26°C° 1.3 mm 3 mps 750 mmHg 73%
17:00 +25°C° 1.3 mm 3 mps 750 mmHg 76%
18:00 +25°C° 1.3 mm 3 mps 750 mmHg 79%
19:00 +24°C° 0.7 mm 3 mps 750 mmHg 84%
20:00 +21°C° 0.7 mm 3 mps 751 mmHg 88%
21:00 +20°C° 0.7 mm 3 mps 751 mmHg 92%
22:00 +20°C° 0 mm 3 mps 751 mmHg 93%
23:00 +19°C° 0 mm 3 mps 751 mmHg 94%

15 August, Saturday

Time Temperature Precipitation Wind Pressure Humidity
00:00 +19°C° 0 mm 2 mps 751 mmHg 95%
01:00 +19°C° 0 mm 2 mps 751 mmHg 95%
02:00 +19°C° 0 mm 2 mps 751 mmHg 94%
03:00 +19°C° 0 mm 2 mps 751 mmHg 94%
04:00 +19°C° 0 mm 2 mps 751 mmHg 94%
05:00 +19°C° 0 mm 2 mps 751 mmHg 93%
06:00 +19°C° 0 mm 2 mps 751 mmHg 93%
07:00 +20°C° 0 mm 2 mps 751 mmHg 92%
08:00 +20°C° 0 mm 2 mps 751 mmHg 90%
09:00 +20°C° 0 mm 2 mps 751 mmHg 89%
10:00 +21°C° 0 mm 2 mps 751 mmHg 86%
11:00 +21°C° 0 mm 2 mps 751 mmHg 83%
12:00 +23°C° 0 mm 2 mps 751 mmHg 80%
13:00 +23°C° 0.1 mm 2 mps 751 mmHg 79%
14:00 +24°C° 0.1 mm 2 mps 751 mmHg 78%
15:00 +24°C° 0.1 mm 3 mps 751 mmHg 76%
16:00 +24°C° 0.2 mm 3 mps 751 mmHg 78%
17:00 +22°C° 0.2 mm 3 mps 751 mmHg 80%
18:00 +22°C° 0.2 mm 3 mps 750 mmHg 83%
19:00 +21°C° 0 mm 2 mps 751 mmHg 86%
20:00 +20°C° 0 mm 2 mps 751 mmHg 90%
21:00 +19°C° 0 mm 2 mps 751 mmHg 93%
22:00 +19°C° 0 mm 2 mps 751 mmHg 93%
23:00 +19°C° 0 mm 2 mps 751 mmHg 94%

16 August, Sunday

Time Temperature Precipitation Wind Pressure Humidity
00:00 +18°C° 0 mm 3 mps 750 mmHg 94%
01:00 +18°C° 0 mm 3 mps 750 mmHg 95%
02:00 +18°C° 0 mm 2 mps 750 mmHg 95%
03:00 +18°C° 0 mm 2 mps 750 mmHg 96%
04:00 +18°C° 0 mm 2 mps 749 mmHg 95%
05:00 +18°C° 0 mm 2 mps 749 mmHg 95%
06:00 +18°C° 0 mm 2 mps 749 mmHg 94%
07:00 +19°C° 0 mm 2 mps 749 mmHg 92%
08:00 +20°C° 0 mm 2 mps 749 mmHg 90%
09:00 +20°C° 0 mm 2 mps 749 mmHg 88%
10:00 +23°C° 0 mm 2 mps 749 mmHg 81%
11:00 +24°C° 0 mm 2 mps 749 mmHg 75%
12:00 +25°C° 0 mm 2 mps 749 mmHg 68%
13:00 +26°C° 0.1 mm 3 mps 748 mmHg 62%
14:00 +27°C° 0.1 mm 4 mps 748 mmHg 56%
15:00 +28°C° 0.1 mm 4 mps 747 mmHg 50%
16:00 +26°C° 1.2 mm 4 mps 747 mmHg 59%
17:00 +23°C° 1.2 mm 5 mps 747 mmHg 69%
18:00 +22°C° 1.2 mm 5 mps 747 mmHg 78%
19:00 +20°C° 0 mm 5 mps 747 mmHg 82%
20:00 +19°C° 0 mm 4 mps 748 mmHg 85%
21:00 +18°C° 0 mm 4 mps 748 mmHg 88%
22:00 +17°C° 0 mm 4 mps 748 mmHg 90%
23:00 +15°C° 0 mm 4 mps 748 mmHg 91%
Show more